Wind_Speed
26 25 25 26 24 17 6 1 3 8 14 8 5 8 4 1 4 3 4 4 2 9 11 10 10 9 3 1 4 6 8 5 8 3 5 2 2 2 8 7 3 1 8 5
26 25 24 25 23 18 6 1 3 9 8 5 7 4 8 4 4 2 3 4 3 3 7 5 5 6 3 2 6 5 9 6 7 8 10 6 6 2 2 6 5 10 7 5
25 25 24 24 22 16 4 2 4 5 6 3 5 4 7 8 4 4 2 1 4 8 7 2 8 8 4 4 3 3 4 3 6 5 4 3 6 6 3 8 9 7 8 12
24 24 23 23 21 14 4 2 2 3 4 9 6 5 1 7 7 4 4 4 4 4 4 6 6 6 9 5 5 3 5 4 2 3 2 2 3 4 4 8 6 8 8 6
23 23 22 22 19 14 8 5 4 2 1 3 6 5 7 8 5 3 7 5 5 2 5 5 6 5 2 2 4 3 3 2 6 5 3 4 5 3 3 3 4 3 4 4
21 22 21 22 19 17 6 7 5 3 2 4 7 5 2 5 5 5 5 6 9 11 9 7 6 4 3 4 2 3 3 6 7 8 5 3 8 11 7 2 4 4 7 7
18 20 20 20 19 16 14 14 3 5 1 4 1 1 1 4 1 4 6 5 4 4 3 3 2 2 1 3 2 5 4 7 4 3 5 13 5 3 2 6 3 5 2 2
15 18 18 17 17 15 10 14 5 4 2 1 4 3 4 8 9 9 9 8 5 3 1 3 4 5 5 6 3 8 7 8 5 7 10 3 6 6 6 8 7 8 6 3
14 15 17 17 16 15 11 8 13 3 7 4 3 2 1 3 4 6 7 5 3 1 2 3 6 9 6 4 5 5 8 7 9 6 11 10 8 8 4 3 9 9 6 3
12 13 15 16 15 14 12 6 11 3 5 2 4 3 4 2 0 2 4 2 3 1 3 6 6 7 1 5 6 5 8 9 12 9 8 4 7 10 9 6 5 10 4 3
12 12 13 14 14 13 12 6 9 8 4 4 1 3 3 2 1 3 4 4 5 3 5 4 3 5 4 5 1 3 7 6 7 5 6 10 14 11 5 7 9 4 3 3
12 12 11 12 12 12 12 5 10 10 4 4 3 3 3 1 2 3 0 3 1 3 2 2 1 5 3 5 5 4 5 4 1 4 4 5 19 1 7 5 5 4 3 3
12 11 11 11 11 11 11 7 10 8 3 5 4 4 3 4 2 1 4 2 0 1 1 3 2 4 3 5 5 3 4 2 3 5 7 10 14 8 8 5 4 4 2 4
12 11 11 10 10 10 9 7 7 8 4 4 4 3 3 6 4 2 2 3 2 2 1 4 4 4 2 1 3 7 4 7 5 3 6 8 11 12 10 8 6 3 2 3
11 11 10 10 9 9 9 7 4 4 3 4 1 3 4 3 5 2 1 3 4 5 6 6 4 1 4 2 3 7 10 5 6 4 11 8 6 17 13 10 6 3 2 3
10 10 11 9 8 7 6 2 2 3 6 2 2 1 5 5 6 4 1 2 3 5 5 3 2 1 4 4 4 3 5 5 4 3 8 4 8 15 13 10 7 3 1 2
8 10 9 8 7 6 3 3 4 6 5 2 4 4 4 7 8 6 4 2 4 6 3 5 4 5 5 5 8 2 4 8 6 10 13 10 14 8 12 9 6 5 2 2
11 5 6 7 7 6 4 8 5 3 2 3 3 2 5 7 9 8 5 4 5 5 2 3 6 4 6 4 2 2 5 8 9 13 7 6 11 12 12 10 8 6 4 2
3 4 4 4 3 2 5 5 6 7 4 4 3 3 3 7 5 3 5 4 5 3 4 3 3 5 5 1 3 4 8 10 10 15 9 10 12 13 12 11 10 8 6 3
2 1 1 3 3 4 3 3 1 3 4 5 5 1 3 5 8 8 3 4 2 3 3 3 4 6 4 5 6 6 7 11 13 17 13 13 13 14 14 13 11 9 7 5
1 1 2 5 3 1 2 3 4 4 4 6 5 6 2 2 5 4 3 0 1 3 4 3 3 3 6 2 4 4 9 14 15 13 9 11 11 13 14 13 13 10 8 6
2 2 3 2 2 3 4 3 3 5 2 5 4 5 5 2 2 4 4 2 2 3 3 3 3 4 4 5 5 3 6 13 15 12 10 10 10 12 13 14 14 13 10 9
2 1 2 2 4 1 5 6 4 3 4 5 6 6 5 4 4 2 3 4 3 1 3 3 1 8 4 7 4 2 5 12 15 13 10 10 10 10 13 14 14 13 13 11
2 4 2 5 5 4 3 3 2 4 2 3 5 6 3 3 6 1 3 2 3 3 3 4 5 5 6 5 2 2 6 11 13 12 9 9 9 9 12 13 13 14 13 12
3 4 4 5 3 3 2 1 2 1 2 4 6 3 4 5 3 3 1 3 4 4 2 2 5 3 4 3 2 4 6 9 9 10 10 10 9 9 11 13 13 14 13 13
3 5 5 3 5 5 5 4 3 3 2 4 3 2 3 4 2 4 6 2 4 1 1 1 1 2 3 1 2 4 5 7 7 9 11 12 11 11 11 13 15 15 14 14
3 4 5 3 1 1 3 2 2 4 1 1 2 4 4 2 3 3 2 4 2 1 3 4 5 6 6 2 3 5 7 8 10 11 13 15 14 12 13 14 16 16 15 14
Wind_Direction
352 352 351 350 350 352 345 185 196 160 151 202 223 226 217 353 255 204 233 268 255 178 165 189 202 191 42 23 217 193 212 247 239 58 123 15 294 11 269 315 139 186 303 79
353 353 353 352 354 353 3 297 100 173 181 228 208 194 237 255 258 208 222 188 267 203 164 150 181 157 97 166 192 186 183 227 178 185 186 190 230 145 291 289 290 284 304 94
354 355 355 355 356 354 356 272 179 159 210 272 284 215 216 219 215 243 241 151 175 162 155 157 160 145 100 132 167 213 196 249 309 5 39 350 189 206 244 276 288 326 283 122
355 356 357 358 359 360 10 304 70 341 187 210 235 243 254 216 184 210 200 164 229 164 143 141 138 144 139 135 147 196 243 237 199 33 80 235 225 198 241 257 323 287 342 279
357 358 358 2 5 8 44 341 329 280 250 228 230 166 205 224 151 252 168 203 144 164 98 14 147 149 232 99 157 195 215 177 177 155 178 198 216 209 236 244 260 287 258 164
357 359 0 2 11 25 28 351 332 306 132 206 224 174 164 177 168 84 78 116 125 99 73 66 69 66 96 95 279 170 235 164 213 247 170 220 241 214 229 239 256 290 227 68
355 359 1 3 7 17 26 8 337 289 124 241 7 171 212 170 121 129 86 67 105 83 92 93 122 111 176 209 220 273 223 214 231 271 186 245 65 110 253 253 222 206 225 177
348 356 0 2 4 7 10 13 10 323 288 355 133 97 119 124 123 96 82 57 71 108 143 240 229 205 221 200 271 231 243 221 211 234 229 207 185 196 197 211 222 211 228 207
342 349 356 1 1 3 5 6 11 330 302 64 336 341 36 151 126 139 105 70 92 171 277 239 243 249 263 209 186 235 219 232 247 198 255 254 74 129 137 145 245 166 204 211
332 341 349 356 358 0 3 351 2 358 295 23 349 20 1 345 283 40 135 94 178 230 241 246 250 244 313 235 233 179 188 215 222 209 247 130 130 143 163 231 81 144 170 271
318 329 339 347 353 357 2 336 354 2 293 290 346 14 11 348 331 294 92 209 194 218 243 262 182 256 176 249 21 217 197 211 205 234 247 243 152 153 223 99 129 162 214 259
303 314 324 334 344 353 356 352 345 339 239 279 236 267 222 137 34 340 283 355 45 5 256 214 264 216 200 269 214 173 227 324 338 313 43 123 168 5 165 161 171 187 225 275
291 300 312 322 332 342 350 350 351 359 305 267 239 202 215 185 184 234 286 192 165 152 353 320 339 257 289 219 229 161 188 211 249 205 147 162 174 170 171 175 179 182 239 301
279 287 301 307 318 326 334 337 347 14 302 279 144 196 161 183 182 171 251 272 217 153 240 256 259 258 211 304 13 269 47 168 188 145 157 162 199 200 192 179 173 185 266 300
275 278 285 300 307 311 318 314 300 4 33 322 314 225 198 196 191 195 215 200 215 225 226 228 237 340 237 192 267 240 193 198 222 290 152 211 191 197 190 185 190 203 285 312
272 273 280 288 296 297 324 284 287 340 353 292 240 199 179 189 185 184 160 216 222 240 254 246 221 240 255 249 249 292 205 218 231 254 169 176 156 169 178 182 181 186 168 349
266 275 272 275 280 274 246 258 252 308 330 283 262 190 195 183 185 202 217 225 223 246 237 236 262 206 228 262 257 225 205 193 183 161 143 144 158 174 176 176 174 169 153 93
281 266 269 271 274 267 266 247 242 286 302 250 268 172 183 183 196 195 205 215 205 198 267 207 232 176 226 262 216 203 202 184 182 180 198 204 180 164 171 175 176 179 173 139
260 283 274 271 228 210 230 238 256 262 221 277 242 250 145 176 190 186 179 217 230 141 238 204 241 220 221 264 241 200 192 190 194 182 182 169 171 176 181 186 191 193 190 178
265 275 199 207 213 223 263 285 212 215 211 225 254 219 182 208 184 182 206 206 255 242 113 155 237 250 277 277 271 254 220 203 184 184 192 190 192 193 195 197 197 198 200 198
166 218 225 235 231 232 225 233 225 179 219 205 228 228 218 183 217 184 225 248 186 253 116 257 192 227 130 357 334 279 218 201 196 197 205 202 205 203 203 203 201 200 199 198
183 225 264 229 225 220 237 210 186 225 239 172 214 167 203 149 177 233 182 242 197 255 97 249 241 102 67 353 334 308 194 194 192 194 190 190 197 203 207 208 207 208 208 209
214 284 225 212 185 275 225 194 191 209 176 170 171 156 168 167 203 202 212 225 225 100 222 238 314 70 4 338 322 238 194 187 186 186 188 189 194 202 207 206 209 211 214 219
214 206 288 222 186 234 219 244 36 80 184 164 181 147 203 151 189 196 225 76 244 247 246 237 109 50 1 357 3 164 176 180 186 190 195 195 205 212 207 209 214 217 223 228
219 225 229 217 258 228 188 219 208 175 237 204 179 195 227 157 171 213 187 206 237 234 257 80 96 21 9 27 94 152 169 183 192 201 207 209 217 221 221 220 221 224 228 234
222 234 242 204 235 188 193 184 155 24 197 191 227 190 215 192 244 187 209 235 231 97 323 104 278 294 344 313 177 184 192 205 218 226 223 220 222 228 232 229 228 228 232 238
227 225 229 256 320 308 144 183 94 13 158 157 233 215 194 106 227 222 238 243 311 234 276 280 266 275 278 235 217 223 225 230 240 250 249 247 228 238 239 234 235 234 238 241
Height
1540 1534 1528 1523 1517 1512 1509 1508 1504 1510 1511 1512 1507 1501 1501 1506 1499 1499 1497 1496 1488 1489 1493 1497 1497 1500 1503 1511 1509 1509 1505 1500 1511 1507 1514 1513 1510 1510 1507 1515 1523 1512 1519 1527
1539 1534 1529 1523 1518 1512 1509 1509 1509 1511 1511 1502 1501 1502 1502 1502 1498 1497 1495 1493 1493 1495 1494 1505 1499 1501 1510 1509 1507 1506 1506 1503 1519 1520 1514 1512 1510 1513 1510 1507 1508 1518 1529 1529
1539 1533 1528 1523 1517 1512 1510 1510 1503 1510 1511 1508 1502 1501 1498 1498 1500 1499 1498 1495 1495 1494 1497 1496 1503 1503 1508 1510 1509 1511 1509 1500 1506 1522 1522 1509 1518 1516 1515 1512 1516 1513 1513 1526
1539 1534 1529 1524 1518 1513 1511 1510 1505 1506 1501 1503 1503 1503 1500 1496 1496 1498 1498 1497 1491 1490 1497 1497 1500 1501 1507 1510 1512 1511 1504 1507 1512 1514 1516 1514 1514 1518 1519 1519 1517 1526 1517 1522
1539 1534 1529 1525 1519 1514 1514 1513 1511 1509 1505 1506 1504 1503 1497 1495 1497 1497 1493 1492 1495 1493 1496 1499 1501 1500 1503 1503 1510 1508 1507 1514 1514 1523 1520 1517 1520 1521 1522 1523 1523 1524 1524 1527
1540 1535 1530 1526 1521 1517 1517 1516 1513 1513 1506 1502 1500 1495 1496 1495 1497 1500 1498 1496 1493 1498 1505 1506 1507 1507 1508 1509 1508 1508 1508 1511 1518 1516 1521 1524 1528 1518 1521 1523 1525 1523 1530 1526
1540 1536 1531 1527 1524 1520 1519 1517 1515 1513 1499 1500 1500 1501 1501 1497 1499 1497 1501 1500 1498 1510 1509 1509 1508 1508 1509 1510 1511 1510 1511 1512 1512 1515 1527 1538 1520 1522 1523 1524 1526 1528 1531 1535
1540 1537 1533 1529 1525 1522 1520 1518 1517 1516 1502 1505 1503 1502 1501 1502 1503 1502 1504 1507 1509 1509 1510 1506 1508 1506 1510 1507 1512 1510 1509 1510 1515 1522 1521 1516 1524 1525 1525 1527 1523 1528 1531 1536
1539 1536 1533 1529 1526 1523 1520 1519 1517 1517 1514 1505 1509 1505 1505 1499 1499 1503 1508 1511 1510 1511 1508 1507 1517 1511 1504 1509 1512 1512 1509 1510 1511 1513 1522 1525 1515 1521 1527 1528 1527 1528 1533 1536
1538 1535 1533 1529 1527 1524 1521 1520 1518 1517 1515 1511 1510 1506 1506 1507 1504 1501 1508 1511 1511 1511 1505 1506 1507 1507 1508 1512 1509 1513 1512 1509 1511 1510 1515 1511 1518 1526 1529 1534 1531 1532 1535 1538
1536 1534 1532 1529 1527 1524 1522 1521 1518 1518 1516 1513 1512 1512 1511 1510 1509 1504 1512 1511 1509 1509 1509 1507 1502 1508 1504 1508 1505 1506 1508 1510 1509 1508 1516 1521 1521 1528 1528 1528 1531 1534 1537 1539
1533 1532 1531 1529 1527 1524 1522 1521 1518 1516 1516 1514 1511 1511 1511 1511 1513 1513 1512 1512 1511 1510 1506 1509 1507 1507 1507 1503 1506 1511 1512 1504 1502 1507 1509 1516 1520 1522 1526 1528 1531 1534 1536 1538
1530 1530 1529 1528 1526 1524 1522 1520 1518 1515 1515 1512 1511 1511 1511 1511 1512 1513 1513 1513 1514 1514 1513 1510 1507 1510 1506 1504 1502 1504 1511 1513 1506 1514 1518 1518 1521 1525 1527 1529 1531 1534 1535 1536
1527 1527 1527 1526 1524 1523 1521 1520 1518 1517 1517 1513 1509 1509 1511 1511 1512 1513 1514 1514 1514 1515 1515 1511 1507 1506 1511 1502 1506 1505 1506 1512 1509 1512 1518 1521 1522 1524 1526 1529 1531 1533 1534 1535
1524 1524 1524 1523 1522 1521 1520 1518 1518 1517 1519 1513 1508 1510 1510 1511 1512 1513 1513 1514 1513 1513 1512 1510 1507 1509 1512 1510 1509 1502 1507 1504 1506 1502 1507 1513 1513 1520 1524 1527 1530 1531 1532 1533
1520 1521 1521 1520 1520 1519 1519 1520 1518 1517 1516 1516 1506 1508 1509 1510 1511 1513 1513 1513 1513 1513 1510 1507 1510 1512 1512 1504 1500 1500 1503 1507 1508 1507 1511 1514 1516 1520 1523 1526 1528 1529 1529 1530
1517 1518 1518 1518 1518 1518 1519 1519 1517 1516 1515 1516 1508 1503 1507 1508 1510 1512 1512 1512 1512 1512 1509 1510 1507 1509 1511 1502 1501 1500 1504 1507 1509 1510 1512 1516 1517 1519 1522 1524 1526 1526 1528 1528
1514 1514 1515 1515 1515 1516 1517 1515 1515 1515 1515 1515 1509 1501 1505 1507 1506 1507 1510 1510 1511 1511 1508 1510 1507 1508 1508 1502 1499 1503 1505 1507 1509 1510 1511 1512 1515 1518 1520 1523 1524 1526 1527 1528
1512 1512 1513 1513 1513 1516 1515 1514 1514 1514 1518 1512 1508 1498 1495 1505 1504 1506 1509 1509 1504 1507 1504 1504 1507 1498 1501 1497 1499 1502 1504 1505 1506 1509 1511 1513 1515 1517 1519 1521 1523 1525 1526 1527
1511 1512 1513 1513 1513 1512 1513 1512 1514 1513 1512 1512 1506 1503 1498 1503 1502 1502 1505 1505 1500 1499 1500 1506 1501 1493 1496 1500 1500 1501 1502 1504 1505 1508 1510 1512 1513 1515 1517 1519 1521 1523 1524 1525
1510 1512 1512 1511 1511 1512 1512 1511 1509 1507 1506 1504 1502 1502 1497 1503 1500 1498 1504 1498 1500 1497 1497 1499 1491 1489 1495 1498 1498 1497 1498 1500 1503 1505 1507 1509 1511 1513 1515 1517 1519 1521 1522 1523
1510 1510 1510 1510 1511 1511 1510 1503 1505 1503 1495 1499 1498 1499 1502 1503 1503 1500 1503 1498 1501 1498 1500 1497 1491 1488 1495 1496 1496 1496 1496 1498 1501 1503 1505 1507 1509 1510 1512 1514 1516 1518 1520 1521
1509 1510 1510 1509 1509 1510 1502 1497 1494 1494 1495 1497 1498 1499 1500 1503 1503 1501 1500 1499 1496 1500 1497 1491 1485 1493 1495 1495 1494 1494 1494 1496 1499 1502 1504 1505 1506 1508 1509 1511 1513 1515 1516 1518
1509 1508 1510 1502 1499 1496 1492 1491 1491 1496 1497 1497 1497 1497 1496 1499 1499 1498 1497 1496 1498 1496 1495 1490 1486 1495 1495 1494 1493 1494 1494 1496 1499 1501 1502 1504 1505 1506 1507 1508 1510 1512 1513 1514
1507 1506 1503 1495 1494 1495 1496 1497 1497 1498 1498 1498 1498 1497 1496 1495 1497 1496 1496 1498 1497 1490 1486 1485 1491 1495 1494 1494 1494 1494 1496 1497 1499 1501 1502 1502 1503 1504 1505 1506 1507 1508 1509 1510
1504 1503 1497 1496 1495 1492 1495 1496 1496 1498 1498 1498 1498 1494 1493 1492 1491 1495 1494 1494 1492 1485 1489 1491 1493 1494 1494 1493 1493 1494 1495 1497 1498 1499 1499 1500 1501 1501 1501 1502 1503 1504 1505 1505
1500 1496 1496 1495 1495 1492 1494 1497 1497 1498 1498 1497 1498 1493 1490 1492 1490 1491 1490 1488 1486 1490 1491 1492 1493 1492 1492 1492 1492 1493 1493 1494 1495 1495 1494 1495 1496 1498 1498 1498 1499 1500 1500 1500